www.pogodaiklimat.ru

Погода и климат >> Архив погоды >> Россия >> Челябинская область >> Катав-Ивановск


ПОГОДА в Катав-Ивановске

  • Прогноз погоды в Катав-Ивановске
  • Монитор погоды в Катав-Ивановске
  • Климат города

АРХИВ ПОГОДЫ в Катав-Ивановске

Время (UTC), дата Ветер
(напр.,м/с)
 
Видим.   Явления Облачность Т
(С)
Тd
(С)
f
(%)
Тe
(С)
Тes
(С)
Комфортность P
(гПа)
Po
(гПа)
Тmin
(С)
Tmax
(С)
R
(мм)
S
(см)
03 16.03 ЮВ 2 20 км ясно -13.1 -14.4 90 -18 -17 1031.4 969.1 -13.1 59
06 16.03 С 1 50 км ясно -4.6 -10.6 63 -7 -1 1029.5 969.2 -13.7
09 16.03 СЗ 1 50 км ясно +1.8 -12.0 35 +1 +9 опасность
простуды
1027.1 968.3
12 16.03 З 1 50 км ясно +4.4 -12.4 28 +4 +6 1026.4 968.2
15 16.03 Ю 2 10 км ясно -1.0 -13.0 40 -4 -4 1028.5 969.1 +5.0
18 16.03 Ю 2 10 км ясно -2.9 -11.8 50 -6 -6 1029.8 969.9
21 16.03 ЮВ 1 10 км ясно -8.5 -12.4 73 -11 -11 1031.4 970.2
00 17.03 Ю 3 10 км ясно -11.0 -13.4 82 -17 -17 1033.0 971.1
03 17.03 ЮВ 3 20 км ясно -12.7 -14.4 87 -19 -19 1034.0 971.6 -13.6 59
06 17.03 В 1 50 км 3/0
[Ci fib]
-2.2 -11.5 49 -4 +2 1031.6 971.7
09 17.03 СЗ 1 50 км ясно +3.6 -12.5 30 +3 +11 опасность
простуды
1029.1 970.6
12 17.03 Ю 1 50 км ясно +5.7 -13.3 24 +6 +8 1027.6 969.6
15 17.03 ЮЗ 2 50 км ясно +0.3 -13.4 35 -2 -2 1028.9 969.7 +6.1
18 17.03 Ю 1 10 км ясно -2.6 -14.3 40 -4 -4 1029.3 969.5
00 18.03 Ю 1 10 км ясно -8.6 -16.3 54 -11 -11 1030.4 969.2
03 18.03 Ю 2 20 км 8/0
[Cs]
-9.0 -16.2 56 -13 -13 1030.2 968.9 -10.5 59
06 18.03 С 1 50 км 9/0
[Cs]
-1.3 -16.3 31 -2 +3 1028.1 968.6
09 18.03 Ю 2 50 км 8/0
[Ci fib]
+6.6 -18.7 14 +6 +11 1025.2 967.5
12 18.03 ЮВ 1 50 км 10/0
[Ci fib]
+6.7 -16.9 17 +7 +9 1023.4 966.6
15 18.03 Ю 3 50 км 10/0
[Ci sp]
+0.9 -21.2 17 -2 -2 1026.3 967.4 +8.0
18 18.03 штиль 0 10 км ясно -2.4 -23.5 18 -2 -2 1027.0 967.3
21 18.03 ЮВ 1 10 км ясно -7.6 -19.1 39 -9 -9 1028.6 967.8
00 19.03 штиль 0 10 км ясно -7.9 -23.4 28 -8 -8 1028.7 967.7
03 19.03 штиль 0 20 км ясно -11.4 -20.5 47 -11 -11 1030.1 968.2 -12.8 59
06 19.03 ЮВ 1 50 км ясно +1.2 -24.2 13 +1 +7 1027.2 968.3
09 19.03 ЮВ 3 50 км ясно +4.2 -21.6 13 +2 +8 1025.8 967.6
12 19.03 ЮВ 2 50 км ясно +3.0 -22.2 14 +1 +3 1025.6 967.2
15 19.03 ЮВ 2 50 км 9/0
[Ci fib]
-1.9 -24.4 16 -4 -4 1027.5 967.9 +4.6
18 19.03 ЮЗ 2 10 км ясно -3.3 -23.1 20 -6 -6 1028.0 968.1
21 19.03 Ю 1 10 км ясно -5.2 -20.7 28 -7 -7 1028.3 967.9
00 20.03 Ю 2 10 км ясно -5.7 -19.4 33 -9 -9 1027.7 967.3
03 20.03 СВ 2 20 км 3/0
[Ci fib]
-6.6 -18.4 39 -10 -10 1028.2 967.6 -7.9 58
06 20.03 ЮВ 3 50 км 8/0
[Ci fib]
-0.6 -20.2 21 -4 -0 1027.0 967.7
09 20.03 ЮВ 1 50 км 9/0
[Ci fib]
+2.6 -19.0 19 +2 +9 1025.8 967.2
12 20.03 Ю 2 50 км 8/0
[Ci fib]
+1.8 -18.6 20 -0 +2 1026.2 967.5
15 20.03 ЮВ 1 50 км 4/0
[Ci fib]
-3.4 -15.1 40 -5 -5 1027.5 967.6 +3.2
18 20.03 штиль 0 10 км ясно -4.9 -16.9 38 -5 -5 1027.9 967.6
21 20.03 СВ 1 10 км ясно -4.4 -18.1 33 -6 -6 1027.4 967.3
00 21.03 штиль 0 10 км ясно -4.0 -17.4 34 -4 -4 1027.5 967.5
03 21.03 ЮВ 2 20 км ясно -2.3 -17.4 30 -5 -5 1027.8 968.1 -5.5 58
06 21.03 В 1 50 км ясно +3.5 -20.7 15 +3 +10 1026.7 968.3
09 21.03 В 2 50 км ясно +6.1 -20.5 13 +5 +12 1026.3 968.4
12 21.03 ЮВ 1 50 км ясно +4.8 -22.2 12 +5 +8 1027.1 968.9
15 21.03 С 1 50 км 3/0
[Ci fib]
-1.4 -21.0 21 -2 -2 1029.1 969.5 +6.2
18 21.03 Ю 1 10 км ясно -1.6 -23.6 17 -2 -2 1028.7 969.1
21 21.03 СВ 1 10 км ясно -3.9 -22.9 21 -5 -5 1029.4 969.3
00 22.03 ЮЗ 1 10 км ясно -3.6 -24.9 17 -5 -5 1029.9 969.8
03 22.03 штиль 0 50 км ясно -3.4 -23.2 20 -3 -3 1030.0 969.9 -4.7 58
06 22.03 В 1 50 км ясно +4.4 -21.0 14 +4 +11 1028.2 969.9
09 22.03 СВ 2 50 км ясно +6.1 -18.3 15 +5 +13 1027.9 969.9
12 22.03 СВ 1 50 км ясно +6.4 -19.1 14 +7 +9 1027.5 969.6
15 22.03 ЮЗ 1 50 км ясно -0.8 -13.0 39 -2 -2 1029.5 970.0 +7.4
18 22.03 Ю 1 10 км ясно -3.6 -12.8 49 -5 -5 1030.3 970.2
21 22.03 ЮВ 1 10 км ясно -3.1 -15.1 39 -4 -4 1029.4 969.4

 

Местоположение метеостанции Катав-Ивановск (Челябинская область, Россия): широта 54.77 долгота 58.22 высота над уровнем моря 477 м.

В архиве по умолчанию представлена погода в Катав-Ивановске за последнюю неделю. Архивные данные за месяц целиком и за предыдущие месяцы, начиная с января 2011 года, Вы можете получить, выбрав интересующий диапазон дат из раскрывающегося списка и нажав кнопку "Ввод!".

Внимание! Время в таблицах - всемирное. Для получения местного времени необходимо прибавить поправку, которая в Катав-Ивановске равна 5 ч.

Смотрите также архив погоды в соседних городах и на ближайших метеорологических станциях:

Погода в Улу-Теляке (Башкирия, Россия) (83 км)
Погода в Учалах (Башкирия, Россия) (90 км)
Погода в Белорецке (Башкирия, Россия) (94 км)
Погода в Архангельском (Башкирия, Россия) (100 км)
Погода в Златоусте (Челябинская область, Россия) (103 км)
Погода в Дуване (Башкирия, Россия) (105 км)
Погода в Тукане (Башкирия, Россия) (109 км)
Погода в Верхнеуральске (Челябинская область, Россия) (118 км)
Погода в Миассе (Челябинская область, Россия) (122 км)
Погода в Емашах (Башкирия, Россия) (131 км)

Пояснения к столбцам:

Ветер - указаны скорость ветра в м/с - средняя за 10 мин, порывы в срок и между сроками (в фигурных скобках) и направление, откуда дует ветер: С - северный, СВ - северо-восточный, В - восточный, ЮВ - юго-восточный, Ю - южный, ЮЗ - юго-западный, З - западный, СЗ - северо-западный.
Видимость - горизонтальная дальность видимости в метрах или километрах. При видимости от 1 до 10 км при отсутствии осадков обычно наблюдается дымка, при ухудшении видимости до 1 км и менее - туман. В сухую погоду видимость может ухудшаться дымом, пылью или мглою.
Явления - указаны атмосферные явления, наблюдавшиеся в срок или в последний час перед сроком; фигурными скобками обозначены явления, наблюдавшиеся между сроками (за 1-3 часа до срока); квадратными скобками обозначены град или гололедные отложения с указанием их диаметра в мм.
Облачность - указаны через наклонную черту общая и нижняя облачность в баллах и высота нижней границы облаков в метрах; квадратными скобками обозначены формы облаков: Ci - перистые, Cs - перисто-слоистые, Cc - перисто-кучевые, Ac - высококучевые, As - высокослоистые, Sc - слоисто-кучевые, Ns - слоисто-дождевые, Cu - кучевые, Cb - кучево-дождевые. Подробнее классификацию облаков см. в Атласе облаков (PDF).
T - Температура воздуха - температура, измеренная на высоте 2 м над землей.
Td - Температура точки росы - температура, при понижении до которой содержащийся в воздухе водяной пар достигнет насыщения.
f - Относительная влажность воздуха - влажноcть воздуха, измеренная на высоте 2 м над землей.
Te - Эффективная температура - температура, которую ощущает одетый по сезону человек в тени. Характеристика душности погоды. При расчете учитывается влияние влажности воздуха и скорости ветра на теплоощущения человека.
Tes - Эффективная температура на солнце - температура, которую ощущает человек, с поправкой на солнечный нагрев. Характеристика знойности погоды. Зависит от высоты солнца над горизонтом, облачности и скорости ветра. Ночью, в пасмурную погоду, а также при ветре 12 м/с и более поправка равна нулю.
P - Атмосферное давление - приведенное к уровню моря атмосферное давление.
Po - Атмосферное давление - измеренное на уровне метеостанции атмосферное давление.
Tmin - Минимальная температура - минимум температуры воздуха на высоте 2 м над землей.
Tmax - Максимальная температура - максимум температуры воздуха на высоте 2 м над землей.
R - Количество осадков - Количество выпавших осадков, мм. При наведении курсора мыши на число - период времени, за который выпало указанное количество осадков.
S - Снежный покров - Высота снежного покрова, см. При наведении курсора мыши на число - состояние снежного покрова и степень покрытия местности в баллах.